Location: Angwin Division
(38.5564°N, 122.4248°W)
Time: 10:02:54
(UTC+00:00)

Daily predictions for brighter satellites

Satellite Brightness Start Highest point End
(mag) Time Altitude Azimuth Time Altitude Azimuth Time Altitude Azimuth
Cosmos 1092 Rocket 4.1 12:35:07 65° NE 12:35:51 72° E 12:41:57 10° SSE
Cosmos 371 Rocket 4.5 12:41:52 10° S 12:46:23 41° ESE 12:50:57 10° NNE
H-2A R/B 3.7 12:47:42 18° SSE 12:47:42 18° SSE 12:51:39 10° ESE
ALOS 4.2 12:46:49 10° NE 12:50:52 29° E 12:54:53 10° SSE
Hubble Space Telescope 3.5 13:00:55 10° S 13:02:04 11° SSE 13:03:20 10° SE
Cosmos 1943 3.3 13:03:22 55° SW 13:03:22 55° SW 13:08:08 10° S
Meteor 1-18 Rocket 4.1 13:18:37 34° NNW 13:21:05 69° W 13:26:39 10° S
Cosmos 1741 Rocket 3.9 13:24:08 44° NW 13:25:40 67° WSW 13:30:50 10° S
Cosmos 2026 Rocket 4.0 13:23:59 15° NNW 13:29:05 61° W 13:35:16 10° S
GEOS 3 Rocket 4.3 13:26:10 10° ESE 13:31:03 48° NE 13:34:41 18° NNW
Cosmos 44 Rocket 4.1 13:26:30 10° S 13:31:15 51° ESE 13:35:55 10° NE
Helios 1A Rocket 3.8 13:32:09 10° NNE 13:36:04 49° E 13:39:57 10° S
FALCON 9 R/B 3.8 13:32:10 28° W 13:36:45 71° S 14:04:20 10° ESE
Cosmos 2279 Rocket 3.9 13:31:54 10° SSW 13:38:03 69° W 13:44:16 10° N
PAYLOAD B 4.3 13:32:57 10° NNE 13:38:31 83° ESE 13:44:05 10° SSW
Cosmos 304 Rocket 4.3 13:34:26 10° S 13:39:07 61° ESE 13:43:50 10° NNE
ATLAS 3B R/B 4.4 13:33:52 10° S 13:39:48 33° ESE 13:45:38 10° NE
Cosmos 405 4.2 13:37:00 10° N 13:40:23 42° ENE 13:43:43 10° SSE
Meteor 1-11 Rocket 4.3 13:34:53 10° S 13:40:33 63° E 13:46:22 10° NNE
USA 234 3.4 13:36:04 10° NE 13:42:20 51° NW 13:46:24 22° W
Cosmos 1850 Rocket 4.3 13:40:38 33° WNW 13:42:24 44° WSW 13:47:25 10° S
Cosmos 1302 Rocket 4.4 13:37:50 10° S 13:43:04 68° ESE 13:48:20 10° NNE
NOSS 3-2 (C) 3.9 13:38:21 10° SSW 13:43:51 58° ESE 13:49:59 10° NE
Meteor 1-5 Rocket 4.4 13:38:25 10° S 13:44:21 83° E 13:50:11 10° N
COSMO-SKYMED 1 2.6 13:41:49 10° S 13:46:05 59° W 13:48:50 21° NNW
Cosmos 2263 Rocket 4.0 13:52:53 13° NNW 13:52:53 13° NNW 13:53:53 10° NNW
Meteor 2-4 Rocket 3.5 13:48:28 10° NNW 13:53:54 76° W 13:59:13 10° S
Cosmos 1733 Rocket 2.9 13:51:22 10° SSW 13:55:39 64° W 13:59:56 10° N
GPS 2-04 Rocket1 3.2 13:58:08 21° WSW 14:00:29 53° S 14:04:26 10° E
NOAA 6 3.9 13:57:37 10° N 14:02:45 77° WNW 14:07:52 10° SSW
SL-24 R/B 4.3 14:00:23 10° SSE 14:04:42 71° ENE 14:08:55 10° N
Cosmos 332 Rocket 4.3 14:02:44 10° SW 14:07:17 38° WNW 14:11:51 10° N
FENGYUN 3A 3.7 14:02:11 10° N 14:07:24 52° WNW 14:12:34 10° SSW
METEOR-M 4.3 14:03:40 10° N 14:08:48 48° WNW 14:13:55 10° SW
Cosmos 2221 Rocket 4.3 14:07:03 17° NW 14:09:40 30° W 14:13:32 10° SSW
EP 3 4.2 14:11:31 10° SSW 14:13:46 61° ESE 14:15:48 10° NE
SMAP 3.9 14:10:54 10° NNE 14:15:29 55° E 14:20:02 10° S
H-2A R/B 3.2 14:15:53 10° NNE 14:19:38 63° E 14:23:25 10° S
Okean O Rocket 1.9 14:16:04 10° N 14:20:16 44° WNW 14:24:27 10° SW
Cosmos 1844 Rocket 3.1 14:15:35 10° SW 14:20:44 38° WNW 14:25:56 10° N
Geosat 4.2 14:18:51 10° S 14:23:43 52° WSW 14:28:39 10° NW
SJ-7 4.4 14:20:02 10° N 14:23:56 53° WNW 14:27:48 10° SSW
ATLAS CENTAUR R/B 1.9 14:20:23 10° NNW 14:24:25 53° NE 14:28:08 10° SE
CZ-4 R/B 4.4 14:24:00 10° NE 14:26:33 16° E 14:29:06 10° SE
IRS-1C Rocket 4.4 14:22:07 10° NNE 14:27:23 72° ESE 14:32:37 10° S
Cosmos 1655 Rocket 4.3 14:22:12 10° NNW 14:28:00 43° W 14:33:48 10° SSW
ALOS 3.2 14:24:17 10° NNW 14:28:10 26° WNW 14:32:02 10° SW
Cosmos 1674 Rocket 3.7 14:25:10 10° NNW 14:29:20 49° W 14:33:29 10° SSW
Cosmos 1536 3.2 14:25:31 10° SSW 14:29:23 44° W 14:33:17 10° N
Cosmos 1500 4.3 14:26:57 10° SW 14:30:06 24° WNW 14:33:15 10° NNW
NOSS 3-2 (A) 3.7 14:25:46 10° WSW 14:31:11 42° NW 14:37:15 10° NNE
Cosmos 1844 4.1 14:26:35 10° SW 14:32:00 40° WNW 14:37:26 10° N
Cosmos 1782 Rocket 4.1 14:27:55 10° S 14:32:17 64° E 14:36:39 10° NNE
Cosmos 1975 Rocket 4.5 14:28:07 10° N 14:32:21 41° ENE 14:36:36 10° SSE
EP 1 4.4 14:30:09 10° SSW 14:33:23 89° NNW 14:36:04 10° NNE
CZ-4B R/B 3.7 14:32:23 10° N 14:37:37 41° WNW 14:42:52 10° SW
COSMOS 2406 3.6 14:33:21 10° NNW 14:39:00 65° ENE 14:44:37 10° SSE
CENTAUR R/B 2.4 14:35:12 10° SW 14:41:00 75° NW 14:47:50 10° NNE
Hubble Space Telescope 3.1 14:39:34 10° SW 14:42:33 19° S 14:45:32 10° SE
BREEZE-M DEB (TANK) 3.4 14:40:39 10° WSW 14:43:06 47° NNW 14:47:55 10° NE
USA 238 DEB 4.2 14:38:01 10° WSW 14:44:03 35° NW 14:50:18 10° NNE
USA 238 4.2 14:38:07 10° WSW 14:44:09 35° NW 14:50:24 10° NNE
Cosmos 1378 Rocket 3.9 14:41:09 10° NNW 14:45:23 46° W 14:49:38 10° SSW
Okean-O 3.2 14:43:06 10° NNE 14:47:31 63° ESE 14:51:53 10° S
ADEOS Rocket 3.2 14:45:53 10° SSE 14:52:48 82° WSW 14:59:02 10° NNW
Cosmos 1486 Rocket 4.1 14:49:20 10° NNW 14:54:32 63° WSW 14:59:41 10° S
Sich 1 Rocket 3.7 14:51:53 10° S 14:56:24 90° ENE 15:00:53 10° N
CORIOLIS 4.2 14:52:05 10° N 14:57:29 76° WNW 15:02:50 10° SSW
